Home   Weather   Cabinda   Past weeks

Flag for Angola Past Weather in Cabinda, Angola — Yesterday and Last 2 Weeks

Now
81 °F

Partly cloudy.


Feels Like: 87 °F
Forecast: 79 / 85 °F
Wind: 5 mph from Southeast

Location: Pointe Airport-Noire

Current Time: Jan 19, 2017 at 5:35:04 am

Latest Report: Jan 19, 2017 at 5:00 am


Visibility: 5 mi

Pressure: 29.86 "Hg

Humidity: 89%

Dew Point: 77 °F

Location of CabindaLocation

Past Weather in Cabinda — Graph

°F

Cabinda Temperature Yesterday

Maximum temperature yesterday: 88 °F (at 1:00 pm)
Minimum temperature yesterday: 79 °F (at 4:00 am)
Average temperature yesterday: 83 °F

High & Low Weather Summary for the Past Weeks

 TemperatureHumidityPressure
High90 °F (Jan 4, 12:00 pm)100% (Jan 5, 6:00 am)30.24 "Hg (Jan 5, 6:00 am)
Low73 °F (Jan 4, 4:00 am)62% (Jan 4, 11:00 am)29.71 "Hg (Jan 14, 4:00 pm)
Average82 °F83%29.82 "Hg
* Reported Jan 4 4:00 am — Jan 19 4:00 am, Cabinda, Weather by CustomWeather, © 2017

Note: Actual official high and low records may vary slightly from our data, if they occured in-between our weather recording intervals... More about our weather records

Advertising

Cabinda Weather History for the Previous 24 Hours

Scroll right to see more
 ConditionsComfort  
Time TempWeatherWind HumidityBarometerVisibility
4:00 am
Thu, Jan 19
81 °FPartly cloudy.5 mph89%29.83 "Hg5 mi
3:00 am81 °FPassing clouds.5 mph89%29.83 "Hg5 mi
2:00 am82 °FPassing clouds.3 mph79%29.83 "Hg5 mi
1:00 am82 °FPassing clouds.5 mph79%29.83 "Hg5 mi
12:00 am82 °FPassing clouds.5 mph79%29.86 "Hg5 mi
11:00 pm
Wed, Jan 18
82 °FPassing clouds.7 mph84%29.89 "Hg5 mi
10:00 pm84 °FPassing clouds.6 mph79%29.89 "Hg5 mi
9:00 pm84 °FPartly cloudy.8 mph84%29.86 "HgN/A
8:00 pm84 °FPassing clouds.6 mph79%29.83 "HgN/A
7:00 pm84 °FPartly cloudy.13 mph79%29.83 "HgN/A
6:00 pm84 °FScattered clouds.13 mph74%29.80 "HgN/A
5:00 pm84 °FScattered clouds.9 mph79%29.80 "HgN/A
4:00 pm86 °FScattered clouds.10 mph70%29.77 "HgN/A
3:00 pm86 °FScattered clouds.15 mph70%29.80 "HgN/A
2:00 pm88 °FScattered clouds.15 mph66%29.83 "HgN/A
1:00 pm88 °FScattered clouds.12 mph66%29.86 "HgN/A
12:00 pm86 °FScattered clouds.10 mph66%29.86 "HgN/A
11:00 am86 °FPassing clouds.10 mph66%29.86 "HgN/A
10:00 am86 °FScattered clouds.10 mph66%29.89 "HgN/A
9:00 am84 °FPassing clouds.9 mph74%29.89 "HgN/A
8:00 am79 °FScattered clouds.7 mph94%29.89 "HgN/A
7:00 am79 °FMore clouds than sun.5 mph89%29.86 "HgN/A
6:00 am79 °FPassing clouds.7 mph89%29.83 "HgN/A
5:00 am79 °FPassing clouds.7 mph89%29.83 "HgN/A
Weather by CustomWeather, © 2017

See weather overviewHow to use our weather pages